[[{"header":{"parameterUnit":"m.s-1","parameterCategory":1,"la1":30.2991,"la2":30.254,"lo1":-89.0895,"lo2":-89.0444,"dy":0.0017,"dx":0.0017,"nx":28,"ny":28,"refTime":"2024-05-08T03:00:00:Z","depth":0,"parameterNumber":2,"parameterNumberName":"U-component_of_WINDS"},"data":[0,0,0,0,0,0,0,0,0,0,0,0,0,0,0,0,0,0,0,0,0,0,0,0,0,0,0,0,0,0,0,0,0,0,0,0,0,0,0,0,0,0,0,0,0,0,0,0,0,0,0,0,0,0,0,0,0,0,-1.0077,-1.0077,0,-1.0135,-1.0136,-1.0137,-1.0143,-1.0142,-1.0141,-1.0141,-1.0204,-1.0206,-1.0208,0,0,0,0,0,0,0,0,0,0,0,0,0,-0.9973,-0.9975,-1.0077,-1.0077,-1.0078,-1.0135,-1.0136,-1.0137,-1.0143,-1.0142,-1.0141,-1.0141,-1.0203,-1.0206,-1.0209,0,0,0,0,0,0,0,0,0,0,0,0,0,-1.0024,-0.9976,-1.0077,-1.0088,-1.0089,-1.0135,-1.0136,-1.0137,-1.0143,-1.0142,-1.0141,-1.014,-1.0202,-1.0206,-1.0209,-1.0248,0,0,-1.0219,-1.0221,0,0,0,0,0,0,0,0,-1.0021,-1.0028,-1.0085,-1.0087,-1.0089,-1.0131,-1.0123,-1.0175,-1.0143,-1.0123,-1.0141,-1.014,-1.0181,-1.0186,-1.0199,-1.0251,-1.0254,-1.022,-1.0222,-1.0223,-1.0224,0,0,0,0,0,0,0,-1.0018,-1.0025,-1.01,-1.0086,-1.0089,-1.0091,-1.0097,-1.0133,-1.0156,-1.0124,-1.0125,-1.0132,-1.0181,-1.0196,-1.02,-1.0255,-1.022,-1.0223,-1.0225,-1.0226,-1.0345,-1.0346,0,0,0,0,0,0,-1.0011,-1.0022,-1.0098,-1.0102,-1.0052,-1.0094,-1.0101,-1.0118,-1.0156,-1.0161,-1.0132,-1.0132,-1.019,-1.0196,-1.0203,-1.0252,-1.0223,-1.0226,-1.0228,-1.0344,-1.0345,-1.0346,0,0,0,0,0,0,-1.0009,-1.0018,-1.0096,-1.0062,-1.0072,-1.0097,-1.0116,-1.012,-1.0134,-1.0162,-1.0166,-1.0142,-1.019,-1.0198,-1.0237,-1.0255,-1.0228,-1.0231,-1.0342,-1.0344,-1.0345,-1.0352,0,0,0,0,0,0,-1.0006,-1.0017,-1.0032,-1.0062,-1.0074,-1.0128,-1.0117,-1.0122,-1.014,-1.0139,-1.0172,-1.0177,-1.019,-1.0232,-1.0241,-1.0259,-1.0234,-1.0341,-1.0343,-1.0345,-1.035,-1.0353,-1.0356,0,0,0,0,0,-1.0002,-1.0031,-1.0032,-1.0041,-1.0092,-1.0129,-1.0136,-1.0149,-1.0141,-1.0156,-1.0174,-1.0176,-1.0251,-1.0236,-1.0246,-1.0265,-1.034,-1.0342,-1.0345,-1.0349,-1.0353,-1.0356,0,0,0,0,0,0,-1.0003,-1.0035,-1.0037,-1.0076,-1.01,-1.013,-1.015,-1.0153,-1.018,-1.0179,-1.0195,-1.0202,-1.0241,-1.0257,-1.024,-1.0306,-1.0295,-1.0299,-1.0294,-1.0299,-1.0302,-1.0298,-1.0236,0,0,0,0,0,-1.0007,-1.0033,-1.0061,-1.0093,-1.0105,-1.0125,-1.0142,-1.015,-1.0175,-1.0186,-1.0206,-1.0232,-1.0262,-1.0281,-1.0309,-1.0352,-1.036,-1.037,-1.0373,-1.0376,-1.038,-1.0405,-1.0411,-1.0354,-1.0354,-1.0354,0,0,-1.0017,-1.0038,-1.0054,-1.0094,-1.0113,-1.0141,-1.0134,-1.0163,-1.0185,-1.019,-1.0229,-1.0245,-1.0275,-1.0316,-1.0336,-1.0331,-1.0397,-1.0379,-1.0381,-1.0384,-1.0409,-1.0414,-1.0419,-1.0356,-1.0356,-1.0356,0,0,-1.005,-1.0067,-1.0097,-1.0116,-1.0145,-1.0159,-1.0166,-1.0196,-1.0207,-1.0245,-1.025,-1.0277,-1.0327,-1.0348,-1.0366,-1.0407,-1.041,-1.0416,-1.0433,-1.0457,-1.0462,-1.0466,-1.0482,-1.0488,-1.042,-1.042,-1.042,0,-1.0059,-1.01,-1.0112,-1.0142,-1.016,-1.0165,-1.0196,-1.0215,-1.0252,-1.0265,-1.0259,-1.0323,-1.0343,-1.039,-1.04,-1.0414,-1.0424,-1.0413,-1.046,-1.0464,-1.0468,-1.0484,-1.049,-1.042,-1.042,-1.042,-1.042,0,-1.0111,-1.0139,-1.016,-1.0195,-1.0215,-1.0245,-1.0263,-1.0283,-1.0289,-1.0304,-1.0344,-1.0368,-1.0403,-1.0414,-1.0421,-1.0463,-1.046,-1.0456,-1.0445,-1.0474,-1.0489,-1.0495,-1.0421,-1.0421,-1.0421,-1.0421,0,0,-1.0146,-1.0187,-1.0194,-1.0211,-1.0243,-1.0266,-1.0298,-1.033,-1.0347,-1.0373,-1.0401,-1.0443,-1.0441,-1.046,-1.047,-1.0491,-1.0524,-1.0486,-1.0487,-1.0493,-1.0574,-1.0578,-1.0584,-1.0526,-1.0527,-1.0528,-1.0572,0,-1.0183,-1.0238,-1.0249,-1.0297,-1.0325,-1.033,-1.0358,-1.0381,-1.0396,-1.0423,-1.0439,-1.047,-1.0463,-1.0475,-1.0497,-1.0516,-1.0541,-1.0513,-1.0554,-1.0555,-1.0547,-1.0592,-1.0595,-1.0636,-1.0578,-1.0579,-1.058,0,-1.0234,-1.0261,-1.031,-1.034,-1.0352,-1.0376,-1.0408,-1.0433,-1.046,-1.047,-1.0492,-1.0499,-1.0533,-1.052,-1.0568,-1.0548,-1.0566,-1.0578,-1.058,-1.0585,-1.057,-1.06,-1.0649,-1.0655,-1.0589,-1.0588,-1.0588,0,-1.0257,-1.0305,-1.0341,-1.0355,-1.039,-1.0407,-1.0423,-1.0449,-1.0468,-1.0496,-1.0509,-1.0541,-1.0559,-1.0584,-1.06,-1.0588,-1.0648,-1.0635,-1.0658,-1.0658,-1.0671,-1.067,-1.0725,-1.068,-1.068,-1.068,-1.068,0,-1.0299,-1.033,-1.0352,-1.0374,-1.041,-1.0423,-1.0458,-1.0474,-1.0498,-1.0525,-1.0531,-1.0557,-1.0576,-1.0604,-1.0617,-1.0656,-1.0664,-1.0674,-1.0677,-1.0674,-1.0673,-1.0687,-1.0685,-1.0681,-1.0681,-1.0681,-1.068,0,-1.0331,-1.0346,-1.0387,-1.0416,-1.0425,-1.0449,-1.0476,-1.0499,-1.0513,-1.0547,-1.0556,-1.0579,-1.0613,-1.0631,-1.0674,-1.0683,-1.0727,-1.0728,-1.0718,-1.0719,-1.0742,-1.074,-1.0808,-1.0818,-1.0765,-1.0766,-1.0766,0,-1.0357,-1.0381,-1.0413,-1.0431,-1.0446,-1.0475,-1.0495,-1.0509,-1.053,-1.0563,-1.0583,-1.0617,-1.0645,-1.0699,-1.0721,-1.0754,-1.0757,-1.0778,-1.0762,-1.0758,-1.0759,-1.0758,-1.0761,-1.0781,-1.0782,-1.0782,-1.0783,0,-1.0403,-1.0409,-1.0436,-1.0467,-1.049,-1.0514,-1.0539,-1.0554,-1.0573,-1.0596,-1.063,-1.0651,-1.0695,-1.0729,-1.0764,-1.0782,-1.0786,-1.0787,-1.0795,-1.0793,-1.0786,-1.0792,-1.0727,-1.0786,-1.0786,-1.0786,-1.0785,-1.0785,-1.0434,-1.0456,-1.0482,-1.0512,-1.0532,-1.0555,-1.0578,-1.0595,-1.0624,-1.066,-1.0667,-1.0703,-1.0731,-1.0778,-1.0797,-1.0827,-1.0823,-1.0833,-1.0836,-1.0839,-1.084,-1.078,-1.0833,-1.0833,-1.0833,-1.0833,-1.0833,0,-1.0482,-1.0498,-1.0526,-1.056,-1.0584,-1.0584,-1.0612,-1.0633,-1.0665,-1.069,-1.0717,-1.0757,-1.0791,-1.0815,-1.0849,-1.0869,-1.0872,-1.0877,-1.0877,-1.0881,-1.0841,-1.0832,-1.0874,-1.0874,-1.0874,-1.0874,-1.0874,-1.0874,-1.0509,-1.0547,-1.0556,-1.0604,-1.0621,-1.0656,-1.0672,-1.0694,-1.0714,-1.0758,-1.0786,-1.0801,-1.0826,-1.0862,-1.0894,-1.09,-1.0913,-1.0919,-1.0926,-1.0888,-1.0884,-1.088,-1.0871,-1.0921,-1.0921,-1.0964,-1.0964,-1.0964]},{"header":{"parameterUnit":"m.s-1","parameterCategory":1,"la1":30.2991,"la2":30.254,"lo1":-89.0895,"lo2":-89.0444,"dy":0.0017,"dx":0.0017,"nx":28,"ny":28,"refTime":"2024-05-08T03:00:00:Z","depth":0,"parameterNumber":3,"parameterNumberName":"V-component_of_WINDS"},"data":[0,0,0,0,0,0,0,0,0,0,0,0,0,0,0,0,0,0,0,0,0,0,0,0,0,0,0,0,0,0,0,0,0,0,0,0,0,0,0,0,0,0,0,0,0,0,0,0,0,0,0,0,0,0,0,0,0,0,6.4109,6.411,0,6.4175,6.4176,6.4177,6.4121,6.4119,6.4116,6.4114,6.4176,6.418,6.4184,0,0,0,0,0,0,0,0,0,0,0,0,0,6.3926,6.393,6.4109,6.411,6.411,6.4175,6.4176,6.4177,6.4121,6.4119,6.4116,6.4113,6.4175,6.418,6.4184,0,0,0,0,0,0,0,0,0,0,0,0,0,6.4,6.3931,6.4109,6.4091,6.409,6.4175,6.4176,6.4177,6.4122,6.4118,6.4115,6.4112,6.4174,6.4179,6.4185,6.429,0,0,6.4202,6.4205,0,0,0,0,0,0,0,0,6.3996,6.4007,6.4092,6.4092,6.4091,6.4136,6.4135,6.4215,6.4123,6.411,6.4114,6.411,6.4166,6.4172,6.4192,6.4293,6.4295,6.4203,6.4206,6.4209,6.421,0,0,0,0,0,0,0,6.3991,6.4004,6.4135,6.4094,6.4093,6.4077,6.4083,6.4149,6.4156,6.411,6.4107,6.4115,6.4164,6.4186,6.4193,6.4296,6.4203,6.4208,6.4211,6.4214,6.4484,6.4488,0,0,0,0,0,0,6.3988,6.4,6.4133,6.4137,6.4034,6.4083,6.409,6.4125,6.4155,6.4157,6.4118,6.4113,6.4178,6.4186,6.4195,6.4318,6.4209,6.4214,6.4217,6.448,6.4485,6.4489,0,0,0,0,0,0,6.3985,6.4001,6.413,6.4067,6.4083,6.409,6.4129,6.4128,6.415,6.4161,6.4161,6.414,6.4176,6.4187,6.4266,6.4319,6.4217,6.4222,6.4476,6.4482,6.4487,6.4566,0,0,0,0,0,0,6.398,6.4,6.4042,6.4069,6.4086,6.4203,6.4133,6.4132,6.4161,6.4154,6.4182,6.4183,6.4174,6.4258,6.4272,6.4325,6.4226,6.4471,6.4479,6.4485,6.4559,6.4574,6.4587,0,0,0,0,0,6.3974,6.4061,6.4044,6.4061,6.4139,6.4206,6.4216,6.4206,6.4166,6.4206,6.4213,6.4182,6.4312,6.4267,6.4282,6.4338,6.4468,6.4476,6.4485,6.4553,6.4571,6.4586,0,0,0,0,0,0,6.4038,6.4064,6.4046,6.4145,6.4174,6.4197,6.4248,6.4226,6.4265,6.4257,6.4241,6.4247,6.4331,6.4342,6.4292,6.444,6.4383,6.4395,6.4429,6.4447,6.446,6.4455,6.4231,0,0,0,0,0,6.4064,6.4119,6.4138,6.4223,6.4239,6.4241,6.427,6.426,6.4288,6.43,6.4312,6.434,6.4386,6.4417,6.4461,6.456,6.4564,6.4606,6.462,6.4631,6.4641,6.4692,6.4711,6.4517,6.4517,6.4516,0,0,6.4118,6.4139,6.4174,6.4237,6.4258,6.4313,6.4252,6.4313,6.4352,6.4308,6.4385,6.4395,6.4424,6.4514,6.4554,6.4525,6.4696,6.4642,6.4651,6.4655,6.4703,6.4721,6.4738,6.4522,6.4521,6.452,0,0,6.4244,6.4266,6.4339,6.4362,6.4395,6.4396,6.4413,6.444,6.4445,6.4522,6.4489,6.4535,6.4616,6.4638,6.4659,6.4792,6.4764,6.4806,6.4878,6.4929,6.4944,6.4957,6.5003,6.5019,6.4816,6.4817,6.4817,0,6.4306,6.4389,6.4379,6.4442,6.4469,6.4433,6.4505,6.4527,6.4572,6.4591,6.4559,6.4659,6.4676,6.477,6.4802,6.4821,6.4838,6.4803,6.4943,6.4956,6.4968,6.5012,6.5029,6.4821,6.4821,6.482,6.482,0,6.4463,6.4521,6.4575,6.4622,6.4655,6.4722,6.4719,6.4754,6.474,6.4743,6.482,6.4839,6.4885,6.4907,6.4894,6.4998,6.4979,6.4946,6.4888,6.4992,6.5032,6.5049,6.4828,6.4827,6.4825,6.4824,0,0,6.4631,6.4671,6.4691,6.471,6.4744,6.4787,6.4852,6.4898,6.4927,6.4959,6.5011,6.508,6.5049,6.5073,6.5062,6.5106,6.5207,6.5067,6.5067,6.5091,6.5321,6.5345,6.5365,6.519,6.5193,6.5195,6.5318,0,6.4757,6.4872,6.4863,6.497,6.5022,6.4988,6.5043,6.5069,6.5073,6.5116,6.512,6.5168,6.5125,6.5139,6.5181,6.5186,6.5253,6.5177,6.5235,6.5237,6.5228,6.5386,6.5412,6.5527,6.5334,6.5336,6.5338,0,6.492,6.4959,6.5072,6.5096,6.5117,6.5168,6.5209,6.5251,6.5278,6.5277,6.5305,6.5285,6.5347,6.5289,6.5373,6.5322,6.5344,6.535,6.5354,6.5358,6.5294,6.5393,6.5564,6.558,6.5363,6.5361,6.5359,0,6.503,6.511,6.5187,6.5205,6.5236,6.5272,6.5286,6.531,6.5338,6.5373,6.539,6.5432,6.5454,6.5485,6.5477,6.5435,6.5562,6.5503,6.5561,6.5561,6.5589,6.5587,6.5764,6.5606,6.5606,6.5605,6.5605,0,6.5171,6.524,6.5237,6.5284,6.536,6.5349,6.5423,6.5433,6.5454,6.55,6.5473,6.5517,6.5503,6.5546,6.5539,6.5609,6.5619,6.5619,6.5616,6.5621,6.5621,6.5635,6.5626,6.561,6.5609,6.5608,6.5607,0,6.5306,6.5307,6.5389,6.5411,6.5418,6.5473,6.5491,6.5534,6.5536,6.5595,6.5608,6.5611,6.5659,6.5654,6.5708,6.5703,6.5789,6.5777,6.578,6.5777,6.5835,6.5829,6.6027,6.6051,6.5878,6.588,6.5881,0,6.5396,6.5449,6.5477,6.5507,6.5524,6.5573,6.5601,6.5591,6.5621,6.5655,6.5694,6.574,6.5776,6.5855,6.586,6.59,6.5888,6.5955,6.5894,6.5897,6.5887,6.5884,6.5888,6.5966,6.5968,6.597,6.5971,0,6.5554,6.5551,6.5595,6.5638,6.5673,6.5706,6.5736,6.5762,6.5754,6.5789,6.5839,6.5867,6.5922,6.5968,6.6006,6.6017,6.5993,6.5991,6.6006,6.6011,6.601,6.6009,6.5811,6.5986,6.5984,6.5983,6.5982,6.5982,6.5668,6.5713,6.5739,6.5788,6.5809,6.5838,6.5879,6.5886,6.5929,6.5974,6.5964,6.602,6.6043,6.6092,6.6108,6.6149,6.6125,6.6147,6.6153,6.6158,6.6164,6.6004,6.6156,6.6156,6.6155,6.6155,6.6155,0,6.5823,6.5839,6.5883,6.5927,6.5964,6.5939,6.597,6.6003,6.6053,6.6077,6.6114,6.617,6.6214,6.6222,6.6263,6.6295,6.6284,6.6306,6.6302,6.6305,6.6185,6.6167,6.6313,6.6313,6.6313,6.6313,6.6313,6.6313,6.5908,6.5982,6.5983,6.6066,6.608,6.6136,6.6155,6.618,6.62,6.6264,6.6301,6.6307,6.6324,6.6366,6.6404,6.6405,6.642,6.6446,6.6443,6.633,6.6314,6.6299,6.6282,6.645,6.645,6.6559,6.6561,6.6561]}]]